EW9776 Weather Reports


Display with metric or nautical units.
time (UTC)temp
F
wind
direction
speed
MPH
gust
MPH
rain 1hr
in
rain 24hr
in
rain mn
in
humidity
%
barometer
mb
20260505163036 63 31 4.0 8.0 0.00 0.00 0.00 68 1015.5
20260505153111 61 35 3.0 7.0 0.00 0.00 0.00 70 1015.4
20260505151536 60 61 2.0 4.0 0.00 0.00 0.00 71 1015.4
20260505124608 56 282 1.0 10.0 0.00 0.00 0.00 75 1014.3
20260505123036 57 268 4.0 10.0 0.00 0.00 0.00 74 1014.3
20260505121535 57 243 5.0 11.0 0.00 0.00 0.00 74 1014.2
20260505120150 58 233 5.0 15.0 0.00 0.00 0.00 74 1014.2
20260505114535 58 242 5.0 11.0 0.00 0.00 0.00 75 1014.1
20260505113033 58 245 5.0 11.0 0.00 0.00 0.00 75 1014.0
20260505111611 58 264 3.0 8.0 0.00 0.00 0.00 73 1013.9
20260505101533 60 231 7.0 17.0 0.00 0.00 0.00 72 1013.6
20260505094534 60 227 8.0 14.0 0.00 0.00 0.00 71 1013.3
20260505093032 61 228 7.0 14.0 0.00 0.00 0.00 71 1013.3
20260505090035 61 227 7.0 14.0 0.00 0.00 0.00 69 1013.1
20260505084536 62 228 8.0 16.0 0.00 0.00 0.00 69 1013.0
20260505083035 62 223 8.0 17.0 0.00 0.00 0.00 68 1013.0
20260505081643 63 217 10.0 19.0 0.00 0.00 0.00 68 1012.9
20260505080030 63 213 10.0 21.0 0.00 0.00 0.00 68 1012.8
20260505073036 63 219 8.0 16.0 0.00 0.00 0.00 68 1012.7
20260505071608 63 214 9.0 19.0 0.00 0.00 0.00 67 1012.6
20260505070037 64 216 9.0 19.0 0.00 0.00 0.00 67 1012.5
20260505064534 64 219 8.0 14.0 0.00 0.00 0.00 67 1012.5
20260505063034 64 223 9.0 14.0 0.00 0.00 0.00 66 1012.5
20260505061538 64 219 9.0 17.0 0.00 0.00 0.00 65 1012.5
20260505060036 64 217 9.0 18.0 0.00 0.00 0.00 64 1012.5
20260505054536 64 213 10.0 18.0 0.00 0.00 0.00 63 1012.4
20260505053037 65 216 9.0 20.0 0.00 0.00 0.00 61 1012.4
20260505051536 65 210 9.0 13.0 0.00 0.00 0.00 59 1012.3
20260505041537 67 219 11.0 21.0 0.00 0.00 0.00 53 1011.7
20260505040110 67 224 11.0 23.0 0.00 0.00 0.00 50 1011.5
20260505034608 68 214 10.0 18.0 0.00 0.00 0.00 49 1011.2
20260505033035 68 214 10.0 18.0 0.00 0.00 0.00 48 1011.0
20260505031536 69 220 10.0 17.0 0.00 0.00 0.00 47 1010.8
20260505030034 70 219 10.0 20.0 0.00 0.00 0.00 47 1010.5
20260505024536 72 218 9.0 18.0 0.00 0.00 0.00 45 1010.4
20260505021535 73 221 9.0 16.0 0.00 0.00 0.00 44 1010.4
20260505020035 75 231 6.0 12.0 0.00 0.00 0.00 42 1010.4
20260505014609 75 242 6.0 11.0 0.00 0.00 0.00 41 1010.3
20260505013036 76 250 6.0 14.0 0.00 0.00 0.00 39 1010.2
20260505011535 77 268 6.0 13.0 0.00 0.00 0.00 37 1010.2
20260505010038 78 261 6.0 13.0 0.00 0.00 0.00 36 1010.2
20260505004535 78 263 7.0 15.0 0.00 0.00 0.00 34 1010.1
20260505003032 79 255 7.0 18.0 0.00 0.00 0.00 33 1010.0
20260505001536 80 250 6.0 15.0 0.00 0.00 0.00 33 1009.9
20260505000111 81 262 6.0 15.0 0.00 0.00 0.00 33 1009.9
20260504230036 82 317 6.0 14.0 0.00 0.00 0.00 37 1010.0
20260504224537 82 9 5.0 14.0 0.00 0.00 0.00 39 1010.2
20260504223035 80 69 3.0 12.0 0.00 0.00 0.00 40 1010.4
20260504221536 80 46 4.0 8.0 0.00 0.00 0.00 41 1010.5
20260504220036 80 24 5.0 11.0 0.00 0.00 0.00 42 1010.6
20260504214536 79 35 5.0 10.0 0.00 0.00 0.00 43 1010.8
20260504213112 78 39 4.0 8.0 0.00 0.00 0.00 43 1011.0
20260504211537 78 39 6.0 11.0 0.00 0.00 0.00 43 1011.1
20260504210037 77 40 6.0 10.0 0.00 0.00 0.00 44 1011.1
20260504204535 77 34 7.0 12.0 0.00 0.00 0.00 44 1011.2
20260504203033 77 28 7.0 13.0 0.00 0.00 0.00 42 1011.4
20260504201610 77 41 5.0 10.0 0.00 0.00 0.00 43 1011.6
20260504200033 77 34 6.0 12.0 0.00 0.00 0.00 44 1011.7
20260504194608 77 35 7.0 12.0 0.00 0.00 0.00 45 1011.7
20260504193030 76 35 6.0 11.0 0.00 0.00 0.00 45 1011.7
20260504191531 76 30 6.0 13.0 0.00 0.00 0.00 45 1011.9
20260504190032 76 44 5.0 10.0 0.00 0.00 0.00 45 1011.9
20260504184536 74 37 4.0 11.0 0.00 0.00 0.00 47 1012.1
20260504183036 73 30 4.0 9.0 0.00 0.00 0.00 49 1012.2
20260504181535 73 33 5.0 11.0 0.00 0.00 0.00 50 1012.2
20260504173034 72 43 4.0 9.0 0.00 0.00 0.00 51 1012.2
20260504171610 71 47 3.0 7.0 0.00 0.00 0.00 52 1012.2